Paris, TX

6:22 AM CST on February 23, 2017 (GMT -0600)
Cox

Weather History for KPRX - November, 2013

Change the Weather History Date:

Saturday, November 2, 2013

  Actual Average Record
Temperature  
Mean Temperature 54 °F -  
Max Temperature 64 °F 65 °F 87 °F (2012)
Min Temperature 44 °F 48 °F 35 °F (1996)
Degree Days  
Heating Degree Days 11    
Growing Degree Days 4 (Base 50)    
Moisture  
Dew Point 35 °F    
Average Humidity 50    
Maximum Humidity 71    
Minimum Humidity 30    
Precipitation  
Precipitation 0.00 in - - ()
Sea Level Pressure  
Sea Level Pressure 30.20 in    
Wind  
Wind Speed 11 mph (NNW)    
Max Wind Speed 25 mph    
Max Gust Speed 32 mph    
Visibility 10 miles    
Events      
Averages and records for this station are not official NWS values.
T = Trace of Precipitation, MM = Missing Value Source: NWS Daily Summary

Daily Weather History Graph

Daily Weather History Graph

Search for Another Location

Airport or City:

Trip Planner

Search our weather history database for the weather conditions in past years. The results will help you decide how hot, cold, wet, or windy it might be!

Date:

Astronomy

Nov. 02, 2013 Rise Set
Actual Time 7:41 AM CDT 6:28 PM CDT
Civil Twilight 7:16 AM CDT 6:54 PM CDT
Nautical Twilight 6:46 AM CDT 7:23 PM CDT
Astronomical Twilight 6:17 AM CDT 7:52 PM CDT
Moon 6:42 AM CDT (11/2) 5:59 PM CDT (11/2)
Length of Visible Light 11h 38m
Length of Day
10h 46m
Waning Crescent, 1% of the Moon is Illuminated
Nov 2
Waning Crescent
Nov 3
New
Nov 9
First Quarter
Nov 17
Full
Nov 25
Last Quarter

Hourly Weather History & Observations

Time (CDT) Temp. Windchill Dew Point Humidity Pressure Visibility Wind Dir Wind Speed Gust Speed Precip Events Conditions
12:15 AM 57.2 °F - 39.2 °F 51% 30.07 in 10.0 mi NNW 13.8 mph - N/A   Clear
12:35 AM 57.2 °F - 39.2 °F 51% 30.07 in 10.0 mi NNW 11.5 mph - N/A   Clear
12:55 AM 55.4 °F - 39.2 °F 54% 30.08 in 10.0 mi NNW 9.2 mph - N/A   Clear
1:15 AM 55.4 °F - 39.2 °F 54% 30.08 in 10.0 mi NW 9.2 mph - N/A   Clear
1:35 AM 53.6 °F - 39.2 °F 58% 30.09 in 10.0 mi NW 9.2 mph - N/A   Clear
1:55 AM 53.6 °F - 39.2 °F 58% 30.09 in 10.0 mi NW 8.1 mph - N/A   Clear
2:15 AM 53.6 °F - 39.2 °F 58% 30.10 in 10.0 mi NW 8.1 mph - N/A   Clear
2:35 AM 51.8 °F - 39.2 °F 62% 30.10 in 10.0 mi NNW 9.2 mph - N/A   Clear
2:55 AM 51.8 °F - 39.2 °F 62% 30.11 in 10.0 mi NNW 9.2 mph - N/A   Clear
3:15 AM 51.8 °F - 37.4 °F 58% 30.11 in 10.0 mi NNW 6.9 mph - N/A   Clear
3:35 AM 50.0 °F - 37.4 °F 62% 30.11 in 10.0 mi NW 6.9 mph - N/A   Clear
3:55 AM 50.0 °F - 37.4 °F 62% 30.11 in 10.0 mi NW 8.1 mph - N/A   Clear
4:15 AM 51.8 °F - 37.4 °F 58% 30.12 in 10.0 mi NW 9.2 mph - N/A   Clear
4:35 AM 51.8 °F - 37.4 °F 58% 30.12 in 10.0 mi NW 9.2 mph - N/A   Clear
4:55 AM 51.8 °F - 37.4 °F 58% 30.13 in 10.0 mi NW 10.4 mph - N/A   Clear
5:15 AM 50.0 °F - 37.4 °F 62% 30.13 in 10.0 mi NW 9.2 mph - N/A   Clear
5:35 AM 48.2 °F - 37.4 °F 66% 30.14 in 10.0 mi NNW 9.2 mph - N/A   Clear
5:55 AM 48.2 °F - 37.4 °F 66% 30.15 in 10.0 mi NNW 10.4 mph - N/A   Clear
6:15 AM 48.2 °F - 37.4 °F 66% 30.16 in 10.0 mi North 9.2 mph - N/A   Clear
6:35 AM 46.4 °F 42.4 °F 37.4 °F 71% 30.17 in 10.0 mi NNW 8.1 mph - N/A   Clear
6:55 AM 46.4 °F 41.9 °F 37.4 °F 71% 30.18 in 10.0 mi NNW 9.2 mph - N/A   Clear
7:15 AM 46.4 °F 41.5 °F 37.4 °F 71% 30.19 in 10.0 mi NNW 10.4 mph - N/A   Clear
7:35 AM 46.4 °F 41.9 °F 35.6 °F 66% 30.19 in 10.0 mi NW 9.2 mph - N/A   Clear
7:55 AM 46.4 °F 41.9 °F 35.6 °F 66% 30.20 in 10.0 mi NW 9.2 mph - N/A   Clear
8:15 AM 48.2 °F - 35.6 °F 62% 30.21 in 10.0 mi NW 9.2 mph - N/A   Clear
8:35 AM 48.2 °F - 37.4 °F 66% 30.22 in 10.0 mi NW 13.8 mph 17.3 mph N/A   Clear
8:55 AM 50.0 °F - 35.6 °F 58% 30.24 in 10.0 mi NW 12.7 mph - N/A   Clear
9:15 AM 51.8 °F - 37.4 °F 58% 30.24 in 10.0 mi NNW 12.7 mph - N/A   Clear
9:35 AM 53.6 °F - 35.6 °F 51% 30.25 in 10.0 mi NNW 15.0 mph 19.6 mph N/A   Clear
9:55 AM 53.6 °F - 35.6 °F 51% 30.26 in 10.0 mi NNW 19.6 mph 24.2 mph N/A   Clear
10:15 AM 55.4 °F - 35.6 °F 47% 30.26 in 10.0 mi NNW 16.1 mph 21.9 mph N/A   Clear
10:35 AM 55.4 °F - 35.6 °F 47% 30.26 in 10.0 mi North 19.6 mph 24.2 mph N/A   Clear
10:55 AM 55.4 °F - 35.6 °F 47% 30.27 in 10.0 mi NNW 20.7 mph 28.8 mph N/A   Clear
11:15 AM 57.2 °F - 35.6 °F 44% 30.27 in 10.0 mi North 16.1 mph - N/A   Clear
11:35 AM 57.2 °F - 35.6 °F 44% 30.28 in 10.0 mi North 15.0 mph 21.9 mph N/A   Clear
11:55 AM 59.0 °F - 33.8 °F 39% 30.28 in 10.0 mi North 18.4 mph 25.3 mph N/A   Clear
12:15 PM 60.8 °F - 33.8 °F 36% 30.27 in 10.0 mi NNW 20.7 mph 27.6 mph N/A   Clear
12:35 PM 60.8 °F - 33.8 °F 36% 30.26 in 10.0 mi NNW 25.3 mph 32.2 mph N/A   Clear
12:55 PM 60.8 °F - 32.0 °F 34% 30.26 in 10.0 mi NNW 20.7 mph 25.3 mph N/A   Clear
1:15 PM 60.8 °F - 33.8 °F 36% 30.25 in 10.0 mi North 16.1 mph 24.2 mph N/A   Clear
1:35 PM 62.6 °F - 33.8 °F 34% 30.24 in 10.0 mi NW 18.4 mph 21.9 mph N/A   Clear
1:55 PM 62.6 °F - 33.8 °F 34% 30.23 in 10.0 mi NNW 16.1 mph 23.0 mph N/A   Clear
2:15 PM 62.6 °F - 32.0 °F 32% 30.22 in 10.0 mi NNW 13.8 mph 21.9 mph N/A   Clear
2:35 PM 62.6 °F - 32.0 °F 32% 30.22 in 10.0 mi NNW 16.1 mph 25.3 mph N/A   Clear
2:55 PM 62.6 °F - 33.8 °F 34% 30.22 in 10.0 mi North 17.3 mph - N/A   Clear
3:15 PM 64.4 °F - 33.8 °F 32% 30.22 in 10.0 mi NNW 16.1 mph 19.6 mph N/A   Clear
3:35 PM 62.6 °F - 33.8 °F 34% 30.21 in 10.0 mi NNW 18.4 mph 26.5 mph N/A   Clear
3:55 PM 64.4 °F - 32.0 °F 30% 30.20 in 10.0 mi NNW 19.6 mph - N/A   Clear
4:15 PM 62.6 °F - 32.0 °F 32% 30.21 in 10.0 mi NNW 17.3 mph 20.7 mph N/A   Clear
4:35 PM 62.6 °F - 32.0 °F 32% 30.20 in 10.0 mi NNW 12.7 mph - N/A   Clear
4:55 PM 62.6 °F - 32.0 °F 32% 30.20 in 10.0 mi NNW 12.7 mph 18.4 mph N/A   Clear
5:15 PM 62.6 °F - 32.0 °F 32% 30.19 in 10.0 mi North 12.7 mph 18.4 mph N/A   Clear
5:35 PM 62.6 °F - 32.0 °F 32% 30.19 in 10.0 mi North 10.4 mph - N/A   Clear
5:55 PM 60.8 °F - 30.2 °F 31% 30.19 in 10.0 mi North 8.1 mph - N/A   Clear
6:15 PM 57.2 °F - 32.0 °F 38% 30.20 in 10.0 mi North 6.9 mph - N/A   Clear
6:35 PM 55.4 °F - 32.0 °F 41% 30.20 in 10.0 mi Calm Calm - N/A   Clear
6:55 PM 55.4 °F - 30.2 °F 38% 30.21 in 10.0 mi North 4.6 mph - N/A   Clear
7:15 PM 55.4 °F - 30.2 °F 38% 30.22 in 10.0 mi Calm Calm - N/A   Clear
7:35 PM 53.6 °F - 30.2 °F 41% 30.22 in 10.0 mi North 3.5 mph - N/A   Clear
7:55 PM 51.8 °F - 30.2 °F 44% 30.22 in 10.0 mi NNE 5.8 mph - N/A   Clear
8:15 PM 50.0 °F - 33.8 °F 54% 30.22 in 10.0 mi NNE 6.9 mph - N/A   Clear
8:35 PM 48.2 °F - 32.0 °F 54% 30.23 in 10.0 mi NNE 5.8 mph - N/A   Clear
8:55 PM 50.0 °F - 32.0 °F 50% 30.24 in 10.0 mi NNE 3.5 mph - N/A   Clear
9:15 PM 48.2 °F - 32.0 °F 54% 30.24 in 10.0 mi Calm Calm - N/A   Clear
9:35 PM 48.2 °F - 33.8 °F 58% 30.24 in 10.0 mi NE 3.5 mph - N/A   Clear
9:55 PM 46.4 °F 44.3 °F 32.0 °F 57% 30.24 in 10.0 mi NE 4.6 mph - N/A   Clear
10:15 PM 44.6 °F - 33.8 °F 66% 30.25 in 10.0 mi Calm Calm - N/A   Clear
10:35 PM 46.4 °F - 33.8 °F 62% 30.25 in 10.0 mi Calm Calm - N/A   Clear
10:55 PM 46.4 °F 44.3 °F 33.8 °F 62% 30.25 in 9.0 mi ENE 4.6 mph - N/A   Clear
11:15 PM 46.4 °F - 33.8 °F 62% 30.26 in 10.0 mi Calm Calm - N/A   Clear
11:35 PM 44.6 °F 42.2 °F 33.8 °F 66% 30.25 in 10.0 mi ENE 4.6 mph - N/A   Clear
11:55 PM 46.4 °F 44.3 °F 32.0 °F 57% 30.25 in 10.0 mi ENE 4.6 mph - N/A   Clear